Location: Arapaho Elementary School
(32.9607°N, 96.7625°W)
Time: 17:48:37
(UTC+00:00)

SL-4 R/B - Visible Passes

Search period start: 28 June 2022 00:00
Search period end: 08 July 2022 00:00
Orbit: 426 x 654 km, 51.6° (Epoch: 27 June)

Date Brightness Start Highest point End Pass type
(mag) Time Alt. Az. Time Alt. Az. Time Alt. Az.
28 Jun 4.9 07:30:41 11° NE 07:30:41 11° NE 07:30:49 10° NE visible
28 Jun 4.0 09:06:07 16° NW 09:06:55 17° NNW 09:09:32 10° NNE visible
29 Jun 5.0 07:22:05 11° NE 07:22:05 11° NE 07:22:11 10° NE visible
29 Jun 4.3 08:57:30 13° NW 08:58:24 14° NNW 09:00:30 10° N visible
30 Jun 5.0 07:13:26 10° NE 07:13:26 10° NE 07:13:30 10° NE visible
30 Jun 4.5 08:48:51 10° NW 08:49:55 11° NNW 08:51:14 10° N visible
01 Jul 5.1 07:04:45 10° NE 07:04:45 10° NE 07:04:46 10° NE visible
